Evan Jaya

Jefe de ojeadores - Bali United
28 Nov 2027
Domingo
Continuar

Personalidad

Adaptabilidad (18) Ambición (15) Controversia (5) Lealtad (13) Presión (18) Profesionalismo (9) Deportividad (3) Temperamento (1)

Perfil

Estilo de dirección Democrático
Licencia Continental A
Determinación 10
Gestión de personas 5
Motivación 10
Disciplina 3
Satisfacción laboral
100%
Fatiga
0%
Cargo Jefe de ojeadores
Salario 40.3K p/s
Contrato 14.03.2030

Rendimiento

Comportamiento Bueno
Efectividad del entrenamiento
25%
Desarrollo de jugadores
15%
Prevención de lesiones
20%
Implementación táctica
15%

Eventos recientes

Evaluó a un jugador ahora
Asistió a una reunión de captación ahora
Evaluó a un jugador ahora
Evaluó a un jugador ahora
Evaluó a un jugador 7d atrás
Evaluó a un jugador 7d atrás
Evaluó a un jugador 7d atrás
Evaluó a un jugador 7d atrás

Actualmente siguiendo

256
Jugador Club Estado Habilidad Confianza Observado Última observación Último voto
Mariano Bracamonte Deportivo Riestra Activo 118 / 108 40% 4 27.11.2027 -
Matías Sosa Arsenal Activo 123 / 112 40% 7 27.11.2027 -
Nermin Haljeta PSIM Activo 105 / 106 40% 12 26.11.2027 -
Luciano Paredes Maipú Activo 112 / 94 40% 1 26.11.2027 -
Lucas Ríos Atlanta Activo 109 / 111 40% 7 24.11.2027 -
Anton Fase PSIM Activo 112 / 103 40% 5 23.11.2027 -
Carlos Gugenheim Almirante Brown Activo 115 / 123 40% 4 23.11.2027 -
Diego Becker Tristán Suárez Activo 112 / 106 40% 2 22.11.2027 -
Marcus Vinicius BATE Activo 114 / 119 40% 3 22.11.2027 -
Gabriel Obredor Deportivo Riestra Activo 124 / 125 40% 4 21.11.2027 -
Axel Batista Quilmes Activo 107 / 118 40% 1 21.11.2027 -
Facundo Taborda Racing Activo 113 / 109 40% 2 20.11.2027 -
Juan Pablo Barinaga Patronato Activo 107 / 110 40% 7 19.11.2027 -
Lautaro Pertusatti River Plate Activo 110 / 100 40% 2 19.11.2027 -
Martín Vallejos Quilmes Activo 101 / 114 40% 3 18.11.2027 -
Jefferson Persebaya Activo 122 / 112 40% 11 17.11.2027 -
Cristian Graciano Real Cartagena Activo 115 / 114 40% 4 17.11.2027 -
Mateo Trejos Jaguares Activo 115 / 100 40% 2 16.11.2027 -
Federico Pérez Agropecuario Argentino Activo 127 / 118 40% 2 16.11.2027 -
Ramiro Balbuena Nueva Chicago Activo 97 / 110 40% 1 15.11.2027 -
Alexis Gómez Persijap Activo 105 / 105 40% 5 14.11.2027 -
Flamarion Pakhtakor Activo 133 / 128 40% 2 14.11.2027 -
Sávio PSM Activo 104 / 107 40% 4 13.11.2027 -
Kianz Froese Semen Padang Activo 103 / 92 40% 11 13.11.2027 -
Borja Martínez Persijap Activo 99 / 107 40% 3 11.11.2027 -
Gustavo França Arema Activo 116 / 113 40% 7 10.11.2027 -
Nicolás Retamar Ferro Carril Oeste Activo 115 / 126 40% 1 10.11.2027 -
Bruno Tubarão Persija Activo 108 / 104 40% 5 09.11.2027 -
Kevin López PSBS Biak Activo 79 / 84 40% 1 09.11.2027 -
Jerónimo Porto Lapegüe San Telmo Activo 111 / 98 40% 5 06.11.2027 -
Nicolás Mosca Atlanta Activo 111 / 116 40% 2 06.11.2027 -
José Rondón Zulia Activo 91 / 104 40% 1 06.11.2027 -
Alexis Messidoro Dewa United Activo 105 / 108 40% 7 04.11.2027 -
Luka Dumančić Persis Activo 105 / 92 40% 1 03.11.2027 -
Gonzalo Asis Almagro Activo 112 / 113 40% 6 02.11.2027 -
Milton Cantero Talleres Activo 94 / 102 40% 1 02.11.2027 -
Facundo Pons San Martín Activo 102 / 112 40% 3 31.10.2027 -
Imanol García Persik Activo 94 / 103 40% 3 30.10.2027 -
Axel Guerra Chacarita Juniors Activo 119 / 121 40% 3 30.10.2027 -
Kei Hirose Borneo Activo 85 / 104 40% 7 27.10.2027 -
Brian Cordoba Cortulua Activo 116 / 122 40% 6 27.10.2027 -
Tomás Díaz Grassano San Miguel Activo 94 / 96 40% 3 26.10.2027 -
Kaio Nunes Borneo Activo 105 / 97 40% 1 25.10.2027 -
Luquinhas PSBS Biak Activo 108 / 90 40% 9 24.10.2027 -
Yefferson Colmenárez Zulia Activo 87 / 89 40% 2 24.10.2027 -
Igor Inocêncio Maluku Utara United Activo 122 / 116 40% 6 23.10.2027 -
Roman Paparyga Qizilqum Activo 106 / 102 40% 2 22.10.2027 -
Agustín Sosa Madryn Activo 103 / 108 40% 1 20.10.2027 -
Stjepan Lončar Persija Activo 101 / 117 40% 5 18.10.2027 -
Danijel Lončar Persib Activo 115 / 93 40% 1 18.10.2027 -
Iván Vaquero Morón Activo 109 / 104 40% 1 18.10.2027 -
Miroslav Maričić Persis Activo 89 / 98 40% 6 17.10.2027 -
Juan José Vásquez Union Magdalena Activo 85 / 87 40% 2 17.10.2027 -
Inti López River Plate Activo 92 / 102 40% 1 17.10.2027 -
Kerim Palić Madura United Activo 100 / 94 40% 2 13.10.2027 -
Dominik Begić Bukhara Activo 84 / 110 40% 3 13.10.2027 -
Diego Romero Liverpool Montevideo Activo 115 / 102 40% 2 13.10.2027 -
Johan Campaña Patriotas Activo 117 / 104 40% 3 11.10.2027 -
Daisuke Sakai PSM Activo 108 / 97 40% 2 09.10.2027 -
Yu Hashimoto Avispa Fukuoka Activo 112 / 126 40% 1 09.10.2027 -
Gustavo Almeida Persija Activo 100 / 92 40% 7 08.10.2027 -
Rayco Persita Activo 107 / 109 40% 6 07.10.2027 -
Eduardo Barbosa PSBS Biak Activo 80 / 93 40% 3 07.10.2027 -
Luka Čumić PSM Activo 106 / 91 40% 6 06.10.2027 -
Uroš Kojić AGMK Activo 97 / 89 40% 1 06.10.2027 -
Alexander Fesshaie IFK Norrkoping Activo 86 / 117 40% 1 04.10.2027 -
Berguinho Persib Activo 102 / 92 40% 3 02.10.2027 -
Najeeb Yakubu Persijap Activo 93 / 111 40% 3 01.10.2027 -
Sudi Abdallah Persijap Activo 105 / 89 40% 2 01.10.2027 -
Andrey Solovey Slavia Mozyr Activo 83 / 95 40% 1 01.10.2027 -
Moussa Sidibé Bhayangkara Presisi Activo 102 / 88 40% 4 29.09.2027 -
Juan David Rueda Alianza Petrolera Activo 121 / 103 40% 4 29.09.2027 -
Juan Salas Patronato Activo 123 / 108 40% 1 28.09.2027 -
Aron Agüero Maipú Activo 107 / 124 40% 1 27.09.2027 -
Bruno Palazzo Nueva Chicago Activo 105 / 121 40% 1 27.09.2027 -
Marcos Astina Borneo Activo 126 / 104 40% 2 24.09.2027 -
Javier Martínez Almirante Brown Activo 116 / 111 40% 2 24.09.2027 -
Aly Ndom Persijap Activo 94 / 96 40% 2 18.09.2027 -
Dimitri Persis Activo 108 / 99 40% 3 15.09.2027 -
Leonardo Palacios Universitario Popayan Activo 107 / 96 40% 1 15.09.2027 -
Sebastián Parada San Luis Activo 96 / 103 40% 1 14.09.2027 -
Sardor Abdunabiyev Bunyodkor Activo 96 / 113 40% 1 14.09.2027 -
Luca Franco Arsenal Activo 99 / 116 40% 1 12.09.2027 -
Andrés Dieppa Deportivo Pasto Activo 94 / 102 40% 1 10.09.2027 -
Jean Pierre Rosso Liverpool Montevideo Activo 111 / 121 40% 3 03.09.2027 -
Sheriddin Boboev PSM Activo 98 / 99 40% 2 02.09.2027 -
Sebastián de Marco Fenix Activo 93 / 105 40% 2 01.09.2027 -
Lisandro Montenegro Chacarita Juniors Activo 116 / 114 40% 1 31.08.2027 -
Alexis Melo All Boys Activo 119 / 109 40% 3 28.08.2027 -
Santiago Corbo Miramar Misiones Activo 106 / 107 40% 3 28.08.2027 -
Guram Janelidze Tskhinvali Activo 96 / 114 40% 2 28.08.2027 -
Agustín Chopitea Colon Activo 110 / 113 40% 1 25.08.2027 -
Mihailo Perović Persebaya Activo 108 / 93 40% 4 24.08.2027 -
Milton Gerez Güemes Activo 111 / 103 40% 1 24.08.2027 -
Mendonça Madura United Activo 82 / 94 40% 1 24.08.2027 -
Facundo Rizzi Güemes Activo 116 / 112 40% 1 21.08.2027 -
Ezra Walian Persik Activo 113 / 111 40% 5 17.08.2027 -
Amadou Makhtarlayi Sarr Trapani Activo 108 / 108 40% 1 17.08.2027 -
Dylan Salvo Defensores Unidos Activo 108 / 94 40% 1 15.08.2027 -
Carlos Cantillo Jaguares Activo 114 / 125 40% 1 12.08.2027 -
Sergio Castel Persik Activo 121 / 104 40% 7 11.08.2027 -
Witan Sulaeman Persija Activo 85 / 97 40% 3 09.08.2027 -
Santiago Paz Spezia Activo 103 / 113 40% 1 08.08.2027 -
Kallum Cesay Salford City Activo 97 / 106 40% 2 06.08.2027 -
Dion Pereira Crawley Town Activo 89 / 94 40% 4 03.08.2027 -
Akin Odimayo Crawley Town Activo 91 / 83 40% 2 30.07.2027 -
Jordan Gabriel Port Vale Activo 119 / 104 40% 2 29.07.2027 -
Reno Piscopo Persik Activo 105 / 97 40% 3 28.07.2027 -
Simone Auriletto Renate Activo 107 / 123 40% 1 26.07.2027 -
Rhys Chadwick Burton Albion Activo 104 / 95 40% 2 25.07.2027 -
Niccolò Zanellato Casarano Activo 122 / 91 40% 2 23.07.2027 -
Nicolás Fernández Tristán Suárez Activo 122 / 105 40% 1 19.07.2027 -
Júnior Brandão Madura United Activo 109 / 112 40% 2 18.07.2027 -
Alejandro Valencia Valledupar Activo 114 / 114 40% 1 18.07.2027 -
Aaron Drinan Swindon Town Activo 102 / 116 40% 2 14.07.2027 -
Clinton Mola Bristol Rovers Activo 102 / 100 40% 2 14.07.2027 -
Nikolay Boyarkin Salyut Activo 78 / 100 40% 2 13.07.2027 -
Federico Pace Latina Activo 93 / 102 40% 1 12.07.2027 -
Martijn Berden Fakel Activo 115 / 102 40% 6 11.07.2027 -
Claudio Messaggi Ospitaletto Activo 94 / 83 40% 1 11.07.2027 -
Ebou Adams Portsmouth Activo 131 / 111 40% 1 10.07.2027 -
Ruslan Shagiakhmetov Volga Activo 99 / 93 40% 1 10.07.2027 -
Riquelme Madura United Activo 92 / 114 40% 2 08.07.2027 -
Jonathan Okoronkwo Torpedo Moscow Activo 90 / 91 40% 2 08.07.2027 -
Ruslan Baitukov Chelyabinsk Activo 87 / 88 40% 2 08.07.2027 -
Alexandr Saplinov Volga Activo 87 / 115 40% 4 06.07.2027 -
Andrey Okladnikov Yenisey Activo 95 / 77 40% 4 06.07.2027 -
Francesco Rillo Picerno Activo 103 / 80 40% 2 05.07.2027 -
Simone Ianesi Pianese Activo 93 / 97 40% 1 05.07.2027 -
Alexandr Ektov Nizhniy Novgorod Activo 96 / 108 40% 1 05.07.2027 -
Igor Shkolik SKA Khabarovsk Activo 103 / 99 40% 1 01.07.2027 -
Jarleysom Portimonense Activo 106 / 118 40% 2 30.06.2027 -
Fedde de Jong De Graafschap Activo 130 / 102 40% 1 30.06.2027 -
Luciano Recalde Quilmes Activo 111 / 120 40% 1 30.06.2027 -
Ezequiel Vidal PSIM Activo 125 / 104 42% 4 / 1m 28.06.2027 -
Alexandr Yushin Torpedo Moscow Activo 103 / 106 40% 6 26.06.2027 -
David Karaev KAMAZ Activo 99 / 88 40% 2 23.06.2027 -
Destiny Efosa Egharevba Picerno Activo 99 / 115 40% 2 22.06.2027 -
Ilja Safronov Rotor Activo 89 / 99 40% 5 20.06.2027 -
Juan Sebastián Peña Leones Activo 115 / 108 40% 2 20.06.2027 -
Ethan Bristow Tranmere Rovers Activo 111 / 115 40% 1 19.06.2027 -
Krasian Kolev Chernomorets Activo 96 / 111 40% 3 18.06.2027 -
Kyle Knoyle Mansfield Town Activo 107 / 104 40% 1 17.06.2027 -
Daniil Penchikov Arsenal Tula Activo 104 / 96 40% 1 12.06.2027 -
Ramazan Gadjimuradov Chelyabinsk Activo 94 / 116 40% 1 12.06.2027 -
Léo Cordeiro Ural Activo 95 / 96 40% 3 08.06.2027 -
Marco Bertini Pianese Activo 87 / 84 40% 1 06.06.2027 -
Simone Potop AlbinoLeffe Activo 105 / 117 40% 1 05.06.2027 -
Tony Rölke Cambuur Activo 105 / 100 40% 7 04.06.2027 -
Andrey Mazurin Yenisey Activo 103 / 95 40% 1 03.06.2027 -
Petro Lutsiv Metalist Activo 91 / 99 40% 1 03.06.2027 -
Dalberto Arema Activo 114 / 109 40% 4 25.05.2027 -
Georgy Gongadze Ufa Activo 110 / 103 40% 3 25.05.2027 -
Abu-Said Eldarushev Rotor Activo 116 / 108 40% 5 23.05.2027 -
Nicolás Servetto Madryn Activo 119 / 122 40% 2 18.05.2027 -
Islam Mashukov Neftekhimik Activo 99 / 77 40% 1 18.05.2027 -
Amur Kalmykov Spartak Kostroma Activo 117 / 117 40% 4 17.05.2027 -
Milan Ristovski Bhayangkara Presisi Activo 102 / 108 40% 5 15.05.2027 -
Lorenzo González Neftekhimik Activo 92 / 78 40% 2 11.05.2027 -
Ilja Azyavin Arsenal Tula Activo 104 / 73 40% 1 10.05.2027 -
Franco Pérez Boston River Activo 103 / 111 40% 1 09.05.2027 -
Danilo Santacruz Madura United Activo 113 / 99 40% 5 07.05.2027 -
Jude Soonsup-Bell Oldham Athletic Activo 87 / 112 40% 2 06.05.2027 -
Mathys Jean Marie Oliveirense Activo 99 / 98 40% 3 04.05.2027 -
Víctor Guzmán Sporting CP Activo 109 / 100 40% 3 27.04.2027 -
Kazaki Nakagawa Semen Padang Activo 81 / 87 40% 1 23.04.2027 -
Vladislav Sarveli Nizhniy Novgorod Activo 92 / 115 40% 2 21.04.2027 -
Ramón Villalba Hatayspor Activo 116 / 85 40% 1 21.04.2027 -
Lirim Qamili SonderjyskE Activo 114 / 117 40% 1 20.04.2027 -
Endy Opoku Bernadina Neftekhimik Activo 78 / 85 40% 1 20.04.2027 -
Jurica Poldrugač Rudes Activo 104 / 110 40% 2 18.04.2027 -
Danila Shilov Dinamo Stavropol Activo 82 / 100 40% 5 16.04.2027 -
Leon Sabua Rotor Activo 98 / 113 40% 3 15.04.2027 -
Medin Memeti Melbourne City Activo 114 / 113 40% 1 08.04.2027 -
Derrick Kyere Dinamo Makhachkala Activo 107 / 82 40% 1 05.04.2027 -
Hazem Mastouri Dinamo Makhachkala Activo 116 / 111 40% 2 04.04.2027 -
Migran Ageyan Ufa Activo 104 / 87 40% 1 31.03.2027 -
Dilan Ortíz Ufa Activo 118 / 104 40% 2 28.03.2027 -
Samson Tovide Colchester United Activo 89 / 97 40% 1 22.03.2027 -
Alisson Safira Juventude Activo 114 / 117 40% 2 21.03.2027 -
Valdeci Arema Activo 99 / 88 40% 2 17.03.2027 -
Jacobo Alcalde SKA Khabarovsk Activo 101 / 94 40% 1 14.03.2027 -
Ilja Stefanovich Leningradets Activo 88 / 81 40% 2 12.03.2027 -
Adrián Dalmau PSIM Activo 118 / 104 40% 1 08.03.2027 -
Ismail Achik Salernitana Activo 121 / 114 40% 1 07.03.2027 -
David Davidyan Rotor Activo 111 / 87 40% 1 04.03.2027 -
Nathan Mbala FC Metz Activo 106 / 103 40% 1 04.03.2027 -
Daniil Kondrakov KDV Tomsk Activo 88 / 100 40% 1 26.02.2027 -
Alexandre Jesus Orenburg Activo 107 / 120 40% 1 15.02.2027 -
Patryk Szwedzik Ruch Activo 102 / 111 40% 1 14.02.2027 -
Zayd El Kandoussi Mouscron Activo 92 / 114 40% 1 12.02.2027 -
Nikolay Giorgobiani Fakel Activo 115 / 95 40% 1 11.01.2027 -
Stefan Lončar Akron Activo 109 / 125 40% 1 31.12.2026 -
Dmitry Tsypchenko Torpedo Moscow Activo 104 / 87 40% 1 28.12.2026 -
Fahd Moufi Baltika Activo 114 / 133 40% 2 26.12.2026 -
Georgy Melkadze Akhmat Grozny Activo 108 / 119 40% 1 17.12.2026 -
Khetag Khosonov Akron Activo 115 / 106 40% 1 17.12.2026 -
Francisco Rivera Persebaya Activo 98 / 97 40% 3 16.12.2026 -
Uilliam Barros Persib Activo 102 / 108 40% 3 15.12.2026 -
Andrey Nikitin Neftekhimik Activo 78 / 109 40% 1 13.12.2026 -
Juan Felipe Villa Borneo Activo 102 / 106 40% 3 08.12.2026 -
Filip Slavíček Sigma Olomouc Activo 118 / 102 40% 1 04.12.2026 -
Darío Ramírez Real Sociedad Activo 105 / 101 40% 2 03.12.2026 -
Rifat Zhemaletdinov Ural Activo 115 / 132 40% 1 03.12.2026 -
Jan Salas Huesca Activo 115 / 109 40% 1 01.12.2026 -
Nathan Moriah-Welsh Mansfield Town Activo 120 / 100 40% 2 30.11.2026 -
Zoran Mitrov Botosani Activo 99 / 98 40% 1 29.11.2026 -
Joe Anderson Barrow AFC Activo 78 / 93 40% 1 29.11.2026 -
Ruxi Madura United Activo 102 / 85 40% 1 29.11.2026 -
Ryan Stirk Chesterfield Activo 89 / 115 40% 3 26.11.2026 -
Moisés Gaúcho Bhayangkara Presisi Activo 92 / 102 40% 3 25.11.2026 -
Chris Nduwarugira Borneo Activo 88 / 89 40% 2 25.11.2026 -
Hakeeb Adelakun Doncaster Rovers Activo 120 / 114 40% 1 25.11.2026 -
Deri Corfe PSIM Activo 95 / 78 40% 3 20.11.2026 -
Josh Benson Rotherham United Activo 101 / 117 40% 1 20.11.2026 -
Ryan Johnson AFC Wimbledon Activo 115 / 109 40% 1 20.11.2026 -
Henrik Bjørdal Viking Activo 127 / 102 40% 1 20.11.2026 -
Johnathan Dewa United Activo 118 / 98 40% 2 19.11.2026 -
Frédéric Maciel CSKA 1948 Activo 115 / 113 40% 1 17.11.2026 -
Michal Faško MSK Zilina Activo 107 / 132 40% 1 12.11.2026 -
Dušan Lagator PSM Activo 100 / 87 40% 1 11.11.2026 -
Caxambu Borneo Activo 83 / 92 40% 1 10.11.2026 -
Alistair Smith AFC Wimbledon Activo 102 / 100 40% 1 08.11.2026 -
Isaac Matondo Koper Activo 114 / 100 40% 1 08.11.2026 -
Daniel Harvie Wycombe Wanderers Activo 116 / 94 40% 1 07.11.2026 -
Egy Maulana Vikri Dewa United Activo 109 / 101 40% 3 06.11.2026 -
Fraser Murray Wigan Athletic Activo 113 / 125 40% 1 05.11.2026 -
Stephan Seiler Vaduz Activo 107 / 96 40% 1 05.11.2026 -
Lucas Palavecino Banfield Activo 113 / 117 40% 1 05.11.2026 -
Tudor Băluţă Universitatea Craiova Activo 121 / 116 40% 1 02.11.2026 -
Lewis McCann Fleetwood Town Activo 90 / 114 40% 1 31.10.2026 -
Liam Bennett Cambridge United Activo 118 / 108 40% 1 29.10.2026 -
Corey O'Keeffe Barnsley Activo 101 / 117 40% 1 29.10.2026 -
Pedro Silva Torrejón Gimnasia La Plata Activo 132 / 127 40% 1 29.10.2026 -
Eli King Gillingham Activo 123 / 126 40% 1 27.10.2026 -
Cameron McJannet Grimsby Town Activo 83 / 98 40% 1 26.10.2026 -
Elliot Bonds Fleetwood Town Activo 116 / 86 40% 1 25.10.2026 -
Hidde ter Avest Oxford United Activo 135 / 107 40% 1 20.10.2026 -
Shayne Pattynama Persija Activo 105 / 113 40% 2 18.10.2026 -
Allano Bhayangkara Presisi Activo 113 / 122 40% 2 10.10.2026 -
Jack Lankester Crewe Alexandra Activo 80 / 98 40% 1 08.10.2026 -
Nehar Sadiki Bhayangkara Presisi Activo 80 / 96 40% 1 05.10.2026 -
Jop van der Avert PSIM Activo 105 / 87 40% 1 05.10.2026 -
Lucas Arce Godoy Cruz Activo 132 / 119 40% 2 03.10.2026 -
Jean Mota Persija Activo 101 / 124 40% 1 03.10.2026 -
Danilo Gomes Albirex Niigata Activo 115 / 119 40% 1 01.10.2026 -
Pedro Matos Persebaya Activo 91 / 87 40% 1 25.09.2026 -
Pablo Oliveira Arema Activo 104 / 117 40% 1 24.09.2026 -
Ernesto Gómez Persik Activo 83 / 99 40% 1 20.09.2026 -
Owen Bailey Doncaster Rovers Activo 108 / 117 40% 1 18.09.2026 -
Jorge Espejo Universidad de Concepcion Activo 104 / 112 40% 1 12.09.2026 -
Nahuel Brunet Godoy Cruz Activo 105 / 106 40% 1 03.09.2026 -
Sousa Persija Activo 93 / 100 40% 1 04.08.2026 -
Caolan Boyd-Munce Wycombe Wanderers Activo 98 / 104 40% 1 04.08.2026 -
Marvin Kaleta Rotherham United Activo 112 / 106 40% 1 04.08.2026 -
Pablo Vázquez Gijón Activo 121 / 96 40% 1 01.08.2026 -